Retour au catalogue

USA 56

ActifMilitairePO
NORAD 20560·PAYLOAD·🇺🇸 United States

Lancé Apr 11, 1990 depuis Vandenberg Space Force Base

Loading…

Prochains Passages (prochaines 24 heures)

TLE

FraisSource: Space-Track

Époque: Sep 14, 2026, 11:12 UTC

1 20560U 90031A   26257.46682952  .00000646  00000-0  85363-4 0  9995
2 20560  89.8560 259.4776 0058727 311.2754  48.3418 14.77791008125889

Suivez USA 56 en temps réel avec AllMySat

Download on the App Store